GW6786 Weather Reports


time (UTC)temp
C
wind
direction
speed
KPH
gust
KPH
rain 1hr
cm
rain 24hr
cm
rain mn
cm
humidity
%
barometer
mb
20260505085104 10 200 8.0 9.7 0.00 0.23 0.00 74 1020.4
20260505084605 10 201 6.4 9.7 0.00 0.23 0.00 74 1020.3
20260505084104 10 202 4.8 11.3 0.00 0.23 0.00 74 1020.3
20260505083605 10 205 8.0 11.3 0.00 0.23 0.00 74 1020.3
20260505083104 10 208 3.2 8.0 0.00 0.23 0.00 75 1020.1
20260505082604 10 229 4.8 8.0 0.00 0.23 0.00 74 1020.1
20260505082104 10 229 3.2 8.0 0.00 0.23 0.00 74 1020.2
20260505081604 10 229 4.8 8.0 0.00 0.23 0.00 73 1020.0
20260505081104 10 229 1.6 4.8 0.00 0.23 0.00 73 1020.0
20260505080604 10 229 3.2 4.8 0.00 0.23 0.00 73 1019.9
20260505075604 10 228 6.4 9.7 0.00 0.23 0.00 72 1019.7
20260505075104 11 224 4.8 14.5 0.00 0.23 0.00 72 1019.7
20260505074604 11 245 4.8 14.5 0.00 0.23 0.00 72 1019.6
20260505073604 11 206 4.8 11.3 0.00 0.23 0.00 72 1019.5
20260505072604 11 269 3.2 12.9 0.00 0.23 0.00 70 1019.4
20260505072104 11 265 3.2 11.3 0.00 0.23 0.00 70 1019.3
20260505071105 12 258 1.6 12.9 0.00 0.23 0.00 68 1019.2
20260505070604 12 257 3.2 12.9 0.00 0.23 0.00 67 1019.1
20260505070104 12 201 6.4 12.9 0.00 0.23 0.00 66 1019.1
20260505065605 12 198 8.0 11.3 0.00 0.23 0.00 65 1019.0
20260505065104 13 205 3.2 12.9 0.00 0.23 0.00 65 1019.0
20260505064604 13 206 8.0 12.9 0.00 0.23 0.00 63 1019.0
20260505064104 13 196 8.0 11.3 0.00 0.23 0.00 63 1018.9
20260505063604 13 206 4.8 20.9 0.00 0.23 0.00 62 1018.9
20260505061104 14 257 4.8 12.9 0.00 0.23 0.00 60 1018.8
20260505060604 13 196 4.8 12.9 0.00 0.23 0.00 60 1018.8
20260505060104 13 192 4.8 12.9 0.00 0.23 0.00 59 1018.8
20260505055604 13 193 8.0 12.9 0.00 0.23 0.00 58 1018.8
20260505054604 13 204 4.8 9.7 0.00 0.23 0.00 60 1018.8
20260505054104 13 204 3.2 9.7 0.00 0.23 0.00 59 1018.8
20260505053604 13 243 4.8 11.3 0.00 0.23 0.00 60 1018.8
20260505053104 13 191 8.0 12.9 0.00 0.23 0.00 59 1018.7
20260505052604 13 194 4.8 12.9 0.00 0.23 0.00 59 1018.7
20260505052104 13 201 6.4 12.9 0.00 0.23 0.00 59 1018.7
20260505051604 13 196 6.4 14.5 0.00 0.23 0.00 60 1018.7
20260505051104 13 195 11.3 14.5 0.00 0.23 0.00 59 1018.7
20260505050604 13 195 8.0 24.1 0.00 0.23 0.00 59 1018.6
20260505041603 15 191 8.0 19.3 0.00 0.23 0.00 61 1017.9
20260505040604 14 200 6.4 19.3 0.00 0.23 0.00 61 1017.9
20260505040104 15 189 9.7 19.3 0.00 0.23 0.00 60 1017.8
20260505034604 14 217 6.4 19.3 0.00 0.23 0.00 63 1017.8
20260505034104 14 198 12.9 16.1 0.00 0.23 0.00 62 1017.8
20260505033604 14 249 8.0 20.9 0.00 0.23 0.00 63 1017.8
20260505033104 14 200 16.1 20.9 0.00 0.23 0.00 61 1017.8
20260505032604 15 216 11.3 25.7 0.00 0.23 0.00 64 1017.8
20260505032104 15 216 8.0 25.7 0.00 0.23 0.00 67 1017.8
20260505031604 15 204 16.1 25.7 0.00 0.23 0.00 65 1017.8
20260505030604 14 229 11.3 27.4 0.00 0.23 0.00 68 1017.8
20260505030104 13 237 11.3 27.4 0.00 0.23 0.00 69 1017.9
20260505025604 13 240 16.1 24.1 0.00 0.23 0.00 70 1018.0
20260505025104 13 199 16.1 20.9 0.00 0.23 0.00 69 1018.0
20260505024104 13 226 9.7 29.0 0.00 0.23 0.00 70 1018.0
20260505023104 13 226 16.1 25.7 0.00 0.23 0.00 70 1018.2
20260505022603 13 247 16.1 25.7 0.00 0.23 0.00 70 1018.3
20260505021104 13 245 17.7 29.0 0.00 0.23 0.00 71 1018.4
20260505020603 13 212 19.3 25.7 0.00 0.23 0.00 70 1018.5
20260505015603 13 234 14.5 33.8 0.00 0.23 0.00 70 1018.8
20260505015104 13 257 19.3 33.8 0.00 0.25 0.00 69 1018.9
20260505014604 12 224 8.0 25.7 0.00 0.25 0.00 72 1019.0
20260505014104 12 243 8.0 25.7 0.00 0.30 0.00 71 1019.1
20260505013104 12 207 8.0 20.9 0.00 0.30 0.00 74 1019.2
20260505012604 11 194 16.1 20.9 0.00 0.30 0.00 73 1019.2
20260505012104 11 207 9.7 20.9 0.00 0.30 0.00 74 1019.3
20260505011105 11 223 14.5 24.1 0.00 0.30 0.00 74 1019.4
20260505010605 11 250 8.0 20.9 0.00 0.30 0.00 75 1019.4
20260505010105 11 231 12.9 24.1 0.00 0.30 0.00 75 1019.4
20260505005604 11 202 12.9 24.1 0.00 0.30 0.00 76 1019.5
20260505003605 11 207 9.7 19.3 0.00 0.30 0.00 78 1019.6
20260505003104 10 203 11.3 16.1 0.00 0.30 0.00 79 1019.7
20260505002605 10 193 9.7 25.7 0.00 0.30 0.00 79 1019.7
20260505002104 10 204 9.7 25.7 0.00 0.30 0.00 78 1019.7
20260505001604 10 262 9.7 19.3 0.00 0.30 0.00 79 1019.6
20260505001104 10 204 11.3 19.3 0.00 0.30 0.00 80 1019.6
20260505000605 10 209 9.7 19.3 0.00 0.30 0.00 80 1019.7
20260505000104 10 220 9.7 19.3 0.00 0.30 0.00 80 1019.6
20260504235604 10 221 12.9 19.3 0.00 0.30 0.00 81 1019.7
20260504235104 10 204 9.7 16.1 0.00 0.30 0.00 81 1019.8
20260504234605 10 197 4.8 16.1 0.00 0.33 0.00 81 1019.8
20260504234105 9 237 8.0 19.3 0.00 0.33 0.00 82 1019.8
20260504233604 9 208 12.9 19.3 0.00 0.33 0.00 81 1019.8
20260504233105 9 207 4.8 27.4 0.00 0.36 0.00 81 1019.8
20260504232104 9 242 8.0 14.5 0.00 0.38 0.00 82 1019.8
20260504231104 9 194 6.4 14.5 0.00 0.43 0.00 82 1019.9
20260504230605 8 226 9.7 14.5 0.00 0.43 0.00 82 1019.7
20260504225604 8 210 9.7 24.1 0.00 0.51 0.00 83 1019.6
20260504225105 8 194 8.0 24.1 0.00 0.58 0.00 82 1019.6
20260504224605 8 254 8.0 16.1 0.00 0.61 0.00 83 1019.5
20260504224104 8 226 9.7 16.1 0.00 0.66 0.00 83 1019.4
20260504223605 8 206 9.7 14.5 0.00 0.71 0.00 84 1019.4
20260504223104 8 190 8.0 12.9 0.00 0.71 0.00 85 1019.4
20260504222604 8 197 4.8 16.1 0.00 0.74 0.00 85 1019.4
20260504222104 7 224 8.0 16.1 0.00 0.74 0.00 85 1019.3
20260504221604 7 216 4.8 12.9 0.00 0.74 0.00 86 1019.3
20260504221105 7 207 6.4 14.5 0.00 0.76 0.00 85 1019.3
20260504220604 7 208 4.8 14.5 0.00 0.79 0.00 86 1019.1
20260504220104 7 194 6.4 20.9 0.00 0.79 0.00 86 1019.0
20260504215605 7 197 9.7 20.9 0.00 0.79 0.00 86 1018.9
20260504215104 7 193 9.7 24.1 0.00 0.79 0.00 86 1018.8
20260504214604 7 205 11.3 24.1 0.00 0.79 0.00 86 1018.7
20260504214104 7 255 8.0 24.1 0.00 0.79 0.00 86 1018.5
20260504213604 7 239 8.0 14.5 0.00 0.79 0.00 87 1018.4
20260504213104 7 209 8.0 19.3 0.00 0.79 0.00 87 1018.3
20260504212605 7 219 6.4 19.3 0.00 0.79 0.00 88 1018.2
20260504212104 7 209 8.0 14.5 0.00 0.79 0.00 88 1018.1
20260504211604 6 245 9.7 14.5 0.00 0.79 0.00 88 1018.0
20260504211104 6 216 8.0 16.1 0.00 0.79 0.00 88 1017.9
20260504210605 6 245 9.7 19.3 0.00 0.79 0.00 88 1017.9
20260504210104 6 247 11.3 19.3 0.00 0.79 0.00 87 1017.9
20260504205604 6 259 9.7 19.3 0.00 0.79 0.00 87 1017.8
20260504205104 6 256 11.3 24.1 0.00 0.79 0.00 87 1017.7
20260504204604 7 252 8.0 24.1 0.00 0.79 0.00 86 1017.6
20260504203604 7 250 8.0 20.9 0.00 0.79 0.00 86 1017.4
20260504203104 7 198 9.7 20.9 0.00 0.79 0.00 86 1017.4
20260504202604 7 216 9.7 24.1 0.00 0.79 0.00 86 1017.4
20260504202104 7 256 14.5 24.1 0.00 0.79 0.00 86 1017.4
20260504201604 7 201 11.3 19.3 0.00 0.79 0.00 86 1017.3
20260504201104 7 194 6.4 12.9 0.00 0.79 0.00 85 1017.4
20260504200605 7 228 6.4 24.1 0.00 0.79 0.00 85 1017.3
20260504200104 7 243 8.0 24.1 0.00 0.79 0.00 85 1017.2
20260504195604 7 229 9.7 24.1 0.00 0.79 0.00 84 1017.1
20260504195104 7 208 14.5 24.1 0.00 0.79 0.00 84 1017.0
20260504194604 7 225 8.0 16.1 0.00 0.79 0.00 84 1017.0
20260504194105 7 223 12.9 20.9 0.00 0.79 0.00 83 1017.0
20260504193604 7 209 14.5 24.1 0.00 0.79 0.00 83 1016.9
20260504193104 7 211 14.5 24.1 0.00 0.79 0.00 82 1016.9
20260504192604 7 217 11.3 27.4 0.00 0.79 0.00 83 1016.8
20260504192105 7 226 17.7 27.4 0.00 0.79 0.00 82 1016.7
20260504191604 7 208 16.1 27.4 0.00 0.79 0.00 82 1016.7
20260504191104 7 210 14.5 25.7 0.00 0.79 0.00 83 1016.7
20260504190604 7 224 11.3 25.7 0.00 0.79 0.00 83 1016.7
20260504190104 7 209 11.3 25.7 0.00 0.79 0.00 83 1016.7
20260504185604 7 236 8.0 32.2 0.00 0.79 0.00 83 1016.7
20260504185104 7 227 19.3 32.2 0.00 0.79 0.00 83 1016.7
20260504184605 7 202 11.3 24.1 0.00 0.79 0.00 84 1016.6
20260504184104 7 246 9.7 27.4 0.00 0.79 0.00 83 1016.6
20260504183604 7 229 11.3 35.4 0.00 0.79 0.00 83 1016.6
20260504183104 7 212 14.5 35.4 0.00 0.79 0.00 83 1016.5
20260504182604 7 219 14.5 25.7 0.00 0.79 0.00 84 1016.4
20260504182104 7 215 11.3 38.6 0.00 0.79 0.00 84 1016.4
20260504181604 7 197 14.5 38.6 0.00 0.79 0.00 85 1016.4
20260504181104 7 212 11.3 20.9 0.00 0.79 0.00 87 1016.4
20260504180604 7 234 9.7 16.1 0.00 0.79 0.00 87 1016.3
20260504180104 7 225 8.0 20.9 0.00 0.79 0.00 87 1016.3
20260504175104 7 226 9.7 20.9 0.00 0.79 0.00 87 1016.3
20260504174604 7 229 8.0 24.1 0.00 0.79 0.00 87 1016.3
20260504174104 7 230 11.3 29.0 0.00 0.79 0.00 87 1016.4
20260504173604 7 226 11.3 29.0 0.00 0.79 0.00 87 1016.4
20260504173104 7 228 9.7 24.1 0.00 0.79 0.00 87 1016.4
20260504172605 7 248 9.7 24.1 0.00 0.79 0.00 87 1016.5
20260504172104 7 262 11.3 24.1 0.00 0.79 0.00 87 1016.6
20260504171104 7 259 14.5 20.9 0.00 0.79 0.00 87 1016.7
20260504170605 7 242 9.7 25.7 0.00 0.79 0.00 87 1016.6
20260504170104 7 237 8.0 25.7 0.00 0.79 0.00 86 1016.6
20260504160104 8 210 11.3 27.4 0.00 0.79 0.00 86 1016.7
20260504151103 8 244 8.0 16.1 0.00 0.79 0.00 87 1016.8
20260504150604 8 228 6.4 19.3 0.00 0.79 0.00 87 1016.8
20260504150105 8 201 12.9 19.3 0.00 0.79 0.00 87 1016.8
20260504141105 8 246 9.7 20.9 0.00 0.79 0.00 87 1017.2
20260504140604 8 238 6.4 12.9 0.00 0.79 0.00 87 1017.1
20260504140104 8 251 6.4 16.1 0.00 0.79 0.00 86 1017.1
20260504130604 10 199 8.0 25.7 0.00 0.79 0.79 88 1017.1
20260504110105 13 193 3.2 8.0 0.08 0.64 0.64 94 1017.3
20260504100604 13 326 4.8 19.3 0.00 0.56 0.56 91 1016.3
20260504090105 13 305 6.4 11.3 0.00 0.56 0.56 92 1016.2